User: anonymous   Login
Location: Unspecified
(0.0000°N, 0.0000°E)
Time: 10:58:35
(UTC+00:00)
Language:

Galileo 5 - Orbit

View from above orbital plane
View from above orbital plane
View from above satellite
View from above satellite

Ground track
Ground track

The orbit data is extracted from the following two-line orbital elements,

1 40128U 14050A   22272.23615577 -.00000061  00000-0  00000-0 0  9994
2 40128  50.2118 328.1472 1620178 127.8231 247.9951  1.85519122 53144
Epoch (UTC): 29 September 2022 05:40:03
Eccentricity: 0.1620178
inclination: 50.2118°
perigee height: 17066 km
apogee height: 26132 km
right ascension of ascending node: 328.1472°
argument of perigee: 127.8231°
revolutions per day: 1.85519122
mean anomaly at epoch: 247.9951°
orbit number at epoch: 5314

The dashed part of the orbit path shows where the satellite is in the earth's shadow,  

DLR